QPF
0.02 0.02 0.02 0.03 0.03 0.03 0.03 0.05 0.06 0.04 0.02 0.01 0.01 0.02 0.02 0.03 0.04 0.05 0.06 0.06 0.05 0.05 0.05 0.06 0.07 0.07 0.07 0.06 0.07 0.05 0.04 0.03 0.03 0.03 0.03 0.03 0.03 0.04
0.01 0.01 0.01 0.01 0.02 0.02 0.02 0.03 0.04 0.04 0.04 0.02 0.02 0.03 0.03 0.02 0.02 0.03 0.05 0.06 0.05 0.05 0.05 0.04 0.05 0.05 0.05 0.05 0.06 0.06 0.05 0.04 0.04 0.04 0.04 0.04 0.03 0.03
0.01 0.01 0.01 0.01 0.02 0.02 0.02 0.02 0.02 0.04 0.04 0.05 0.03 0.03 0.03 0.02 0.02 0.02 0.03 0.04 0.05 0.04 0.03 0.02 0.04 0.05 0.04 0.04 0.05 0.06 0.05 0.04 0.04 0.04 0.04 0.05 0.05 0.05
0.01 0.01 0.02 0.02 0.02 0.02 0.02 0.02 0.02 0.03 0.04 0.04 0.04 0.03 0.02 0.03 0.03 0.02 0.02 0.02 0.02 0.04 0.04 0.02 0.02 0.03 0.03 0.03 0.04 0.05 0.05 0.05 0.05 0.05 0.05 0.05 0.05 0.05
0.01 0.01 0.01 0.01 0.01 0.02 0.02 0.02 0.02 0.02 0.03 0.03 0.03 0.03 0.03 0.03 0.03 0.02 0.01 0.01 0.01 0.03 0.03 0.03 0.02 0.02 0.02 0.02 0.02 0.03 0.04 0.04 0.05 0.05 0.04 0.04 0.04 0.05
0.01 0.01 0.01 0.01 0.02 0.03 0.03 0.02 0.03 0.04 0.04 0.04 0.03 0.03 0.04 0.03 0.04 0.02 0.01 0.01 0.02 0.02 0.03 0.03 0.03 0.02 0.02 0.03 0.02 0.03 0.03 0.04 0.05 0.06 0.05 0.05 0.04 0.04
0.02 0.01 0.02 0.02 0.03 0.03 0.03 0.03 0.03 0.03 0.03 0.03 0.03 0.03 0.04 0.04 0.03 0.02 0.02 0.02 0.02 0.03 0.02 0.02 0.03 0.03 0.03 0.04 0.03 0.04 0.04 0.05 0.05 0.06 0.07 0.06 0.05 0.05
0.03 0.02 0.02 0.02 0.02 0.02 0.02 0.02 0.02 0.02 0.02 0.03 0.02 0.03 0.04 0.03 0.03 0.02 0.03 0.03 0.04 0.04 0.03 0.03 0.03 0.03 0.04 0.04 0.04 0.03 0.04 0.04 0.05 0.05 0.06 0.06 0.06 0.06
0.03 0.02 0.02 0.02 0.01 0.01 0.01 0.01 0.02 0.03 0.03 0.03 0.03 0.03 0.04 0.04 0.04 0.03 0.03 0.04 0.05 0.05 0.05 0.04 0.04 0.04 0.04 0.03 0.03 0.02 0.02 0.02 0.03 0.04 0.04 0.04 0.04 0.05
0.02 0.03 0.03 0.02 0.02 0.02 0.01 0.01 0.01 0.02 0.03 0.03 0.04 0.04 0.06 0.06 0.06 0.05 0.05 0.05 0.05 0.05 0.05 0.04 0.04 0.03 0.02 0.02 0.02 0.02 0.01 0.01 0.01 0.02 0.04 0.04 0.04 0.03
0.02 0.02 0.02 0.01 0.02 0.02 0.02 0.02 0.02 0.02 0.02 0.02 0.03 0.04 0.05 0.06 0.06 0.06 0.07 0.06 0.05 0.05 0.05 0.05 0.05 0.05 0.03 0.02 0.02 0.02 0.01 0.01 0.01 0.02 0.03 0.04 0.04 0.04
0.03 0.04 0.03 0.02 0.02 0.02 0.02 0.03 0.03 0.02 0.02 0.02 0.02 0.03 0.04 0.04 0.05 0.05 0.07 0.09 0.08 0.07 0.06 0.06 0.06 0.05 0.04 0.02 0.02 0.02 0.02 0.01 0.01 0.02 0.02 0.02 0.03 0.03
0.02 0.02 0.03 0.03 0.01 0.01 0.01 0.01 0.01 0.01 0.01 0.01 0.02 0.02 0.03 0.03 0.03 0.02 0.03 0.05 0.05 0.04 0.04 0.04 0.05 0.05 0.05 0.03 0.02 0.03 0.02 0.02 0.02 0.02 0.02 0.02 0.02 0.02
0.01 0.01 0.01 0.01 0.01 0.01 0.01 0.01 0.01 0.01 0.01 0.01 0.01 0.01 0.01 0.01 0.01 0.02 0.02 0.03 0.04 0.03 0.03 0.03 0.04 0.05 0.05 0.04 0.03 0.04 0.03 0.02 0.02 0.02 0.01 0.01 0.02 0.02
0.02 0.01 0.01 0.01 0.01 0.01 0.01 0.01 0.01 0.01 0.01 0.01 0.01 0.01 0.01 0.01 0.01 0.02 0.02 0.02 0.02 0.02 0.02 0.02 0.03 0.03 0.04 0.03 0.03 0.04 0.04 0.02 0.02 0.02 0.01 0.01 0.01 0.02
0.01 0.01 0.01 0.01 0.02 0.01 0.01 0.01 0.01 0.01 0.01 0.01 0.01 0.01 0.01 0.02 0.02 0.03 0.03 0.03 0.03 0.02 0.02 0.03 0.03 0.04 0.03 0.03 0.02 0.03 0.03 0.03 0.02 0.02 0.02 0.02 0.02 0.02
0.01 0.02 0.02 0.02 0.02 0.02 0.01 0.01 0.01 0.01 0.01 0.02 0.02 0.02 0.04 0.05 0.04 0.04 0.04 0.04 0.04 0.03 0.03 0.03 0.04 0.04 0.04 0.03 0.02 0.02 0.03 0.03 0.02 0.03 0.03 0.02 0.02 0.02
0.02 0.03 0.03 0.02 0.02 0.02 0.02 0.02 0.02 0.02 0.02 0.03 0.03 0.04 0.05 0.05 0.05 0.04 0.04 0.03 0.03 0.03 0.03 0.03 0.03 0.04 0.03 0.02 0.02 0.03 0.03 0.03 0.03 0.02 0.03 0.03 0.03 0.02
0.02 0.03 0.03 0.02 0.02 0.01 0.01 0.02 0.02 0.02 0.03 0.03 0.03 0.03 0.03 0.03 0.03 0.04 0.05 0.04 0.05 0.04 0.03 0.03 0.03 0.03 0.03 0.02 0.01 0.02 0.03 0.03 0.03 0.02 0.02 0.02 0.02 0.03
0.01 0.01 0.02 0.02 0.01 0.01 0.01 0.01 0.01 0.02 0.02 0.02 0.03 0.03 0.03 0.03 0.03 0.03 0.04 0.05 0.06 0.05 0.03 0.03 0.02 0.02 0.03 0.02 0.03 0.03 0.03 0.03 0.03 0.02 0.02 0.02 0.03 0.03
0.01 0.01 0.01 0.01 0.01 0.01 0.01 0.02 0.02 0.02 0.02 0.02 0.02 0.02 0.02 0.02 0.03 0.03 0.04 0.03 0.03 0.04 0.03 0.02 0.02 0.02 0.02 0.03 0.02 0.03 0.03 0.03 0.03 0.03 0.03 0.02 0.02 0.02
0.01 0.01 0.01 0.01 0.01 0.01 0.01 0.01 0.01 0.01 0.01 0.02 0.02 0.02 0.02 0.02 0.03 0.03 0.04 0.04 0.04 0.06 0.06 0.04 0.03 0.03 0.03 0.03 0.03 0.02 0.02 0.02 0.02 0.02 0.03 0.04 0.04 0.03
0.01 0.01 0.01 0.01 0.01 0.00 0.00 0.01 0.01 0.01 0.02 0.02 0.02 0.03 0.03 0.03 0.03 0.03 0.03 0.03 0.04 0.05 0.07 0.05 0.03 0.04 0.04 0.04 0.04 0.03 0.03 0.02 0.02 0.02 0.03 0.04 0.04 0.05
MSLP
1010.61 1010.43 1010.25 1010.03 1009.74 1009.34 1008.84 1008.24 1007.58 1006.89 1006.23 1005.62 1005.09 1004.64 1004.26 1003.93 1003.63 1003.33 1003.04 1002.74 1002.47 1002.25 1002.09 1002.02 1002.05 1002.16 1002.34 1002.57 1002.82 1003.07 1003.31 1003.53 1003.75 1003.98 1004.25 1004.56 1004.93 1005.37
1009.63 1009.37 1009.11 1008.85 1008.53 1008.13 1007.65 1007.10 1006.48 1005.85 1005.23 1004.65 1004.14 1003.70 1003.33 1002.99 1002.69 1002.39 1002.09 1001.81 1001.54 1001.33 1001.18 1001.13 1001.17 1001.31 1001.52 1001.80 1002.10 1002.40 1002.69 1002.97 1003.24 1003.51 1003.79 1004.10 1004.46 1004.86
1008.67 1008.31 1007.99 1007.66 1007.32 1006.92 1006.47 1005.95 1005.39 1004.81 1004.24 1003.71 1003.22 1002.80 1002.43 1002.10 1001.78 1001.48 1001.18 1000.89 1000.62 1000.40 1000.25 1000.20 1000.24 1000.39 1000.62 1000.92 1001.27 1001.63 1001.98 1002.33 1002.66 1002.97 1003.29 1003.63 1003.98 1004.36
1007.77 1007.33 1006.93 1006.55 1006.18 1005.78 1005.34 1004.86 1004.35 1003.82 1003.30 1002.81 1002.36 1001.95 1001.59 1001.26 1000.95 1000.64 1000.33 1000.02 999.74 999.50 999.33 999.25 999.27 999.41 999.64 999.95 1000.33 1000.74 1001.16 1001.57 1001.96 1002.34 1002.71 1003.07 1003.44 1003.80
1006.94 1006.43 1005.97 1005.54 1005.14 1004.73 1004.31 1003.86 1003.38 1002.90 1002.42 1001.97 1001.55 1001.16 1000.82 1000.49 1000.18 999.87 999.55 999.23 998.92 998.65 998.44 998.31 998.29 998.38 998.58 998.89 999.28 999.72 1000.19 1000.67 1001.14 1001.58 1002.01 1002.41 1002.79 1003.16
1006.18 1005.61 1005.10 1004.63 1004.20 1003.78 1003.36 1002.93 1002.48 1002.03 1001.58 1001.16 1000.77 1000.41 1000.09 999.78 999.48 999.17 998.85 998.52 998.18 997.86 997.59 997.40 997.31 997.34 997.49 997.76 998.14 998.60 999.11 999.64 1000.18 1000.70 1001.18 1001.63 1002.04 1002.41
1005.45 1004.84 1004.29 1003.79 1003.34 1002.91 1002.48 1002.05 1001.62 1001.18 1000.76 1000.36 1000.00 999.67 999.37 999.09 998.82 998.52 998.21 997.86 997.50 997.13 996.80 996.53 996.36 996.30 996.38 996.60 996.95 997.41 997.94 998.53 999.12 999.71 1000.26 1000.76 1001.21 1001.60
1004.70 1004.07 1003.50 1002.99 1002.51 1002.07 1001.63 1001.20 1000.76 1000.34 999.93 999.55 999.20 998.91 998.64 998.39 998.15 997.88 997.58 997.24 996.85 996.45 996.06 995.71 995.45 995.30 995.30 995.45 995.76 996.20 996.75 997.38 998.03 998.68 999.30 999.86 1000.36 1000.78
1003.91 1003.29 1002.71 1002.19 1001.70 1001.24 1000.79 1000.35 999.90 999.47 999.07 998.69 998.37 998.10 997.86 997.65 997.45 997.22 996.95 996.62 996.23 995.80 995.36 994.94 994.60 994.37 994.29 994.37 994.64 995.06 995.61 996.26 996.97 997.68 998.37 998.99 999.54 1000.01
1003.09 1002.47 1001.91 1001.39 1000.90 1000.43 999.97 999.50 999.05 998.60 998.19 997.82 997.50 997.24 997.04 996.86 996.70 996.51 996.27 995.97 995.59 995.16 994.69 994.24 993.83 993.54 993.39 993.41 993.63 994.03 994.59 995.26 996.00 996.77 997.52 998.21 998.82 999.34
1002.25 1001.66 1001.12 1000.61 1000.12 999.65 999.18 998.70 998.23 997.76 997.33 996.95 996.63 996.38 996.19 996.04 995.91 995.76 995.56 995.29 994.95 994.53 994.06 993.59 993.16 992.83 992.64 992.62 992.80 993.18 993.73 994.42 995.19 996.01 996.81 997.56 998.22 998.79
1001.46 1000.90 1000.38 999.89 999.42 998.95 998.47 997.98 997.49 997.00 996.55 996.15 995.81 995.55 995.36 995.22 995.11 994.99 994.83 994.60 994.29 993.91 993.47 993.02 992.60 992.26 992.05 992.02 992.18 992.54 993.08 993.77 994.56 995.40 996.24 997.03 997.74 998.34
1000.78 1000.25 999.76 999.30 998.84 998.38 997.89 997.39 996.88 996.37 995.89 995.46 995.10 994.81 994.60 994.45 994.34 994.23 994.10 993.91 993.65 993.32 992.94 992.54 992.16 991.84 991.65 991.62 991.78 992.12 992.65 993.33 994.11 994.95 995.80 996.61 997.35 997.99
1000.25 999.76 999.30 998.86 998.42 997.96 997.48 996.98 996.45 995.93 995.42 994.95 994.55 994.22 993.97 993.79 993.65 993.54 993.42 993.26 993.05 992.79 992.48 992.15 991.83 991.58 991.43 991.42 991.59 991.93 992.43 993.08 993.84 994.66 995.49 996.30 997.04 997.69
999.91 999.46 999.03 998.61 998.18 997.73 997.26 996.76 996.23 995.69 995.16 994.66 994.21 993.83 993.52 993.28 993.10 992.96 992.83 992.70 992.53 992.33 992.10 991.86 991.64 991.47 991.38 991.42 991.59 991.93 992.40 993.01 993.72 994.49 995.28 996.06 996.78 997.43
999.76 999.34 998.93 998.53 998.12 997.69 997.23 996.74 996.22 995.67 995.13 994.59 994.10 993.66 993.28 992.97 992.73 992.54 992.38 992.25 992.11 991.97 991.82 991.68 991.56 991.48 991.47 991.56 991.77 992.09 992.54 993.10 993.74 994.44 995.17 995.90 996.59 997.22
999.79 999.39 999.00 998.61 998.22 997.82 997.38 996.91 996.41 995.88 995.33 994.77 994.23 993.73 993.28 992.89 992.57 992.30 992.10 991.94 991.82 991.72 991.65 991.60 991.58 991.60 991.68 991.83 992.07 992.39 992.81 993.31 993.88 994.51 995.16 995.82 996.46 997.07
999.96 999.58 999.20 998.84 998.47 998.09 997.69 997.26 996.80 996.29 995.75 995.19 994.62 994.05 993.53 993.05 992.63 992.28 992.01 991.81 991.67 991.60 991.58 991.61 991.68 991.80 991.96 992.17 992.45 992.78 993.17 993.62 994.12 994.66 995.24 995.83 996.42 997.01
1000.24 999.87 999.51 999.16 998.83 998.49 998.14 997.77 997.35 996.89 996.37 995.81 995.22 994.61 994.00 993.43 992.91 992.47 992.11 991.84 991.68 991.60 991.61 991.70 991.84 992.04 992.28 992.56 992.87 993.21 993.59 993.99 994.43 994.90 995.40 995.93 996.47 997.03
1000.58 1000.23 999.89 999.58 999.28 999.00 998.71 998.40 998.04 997.64 997.16 996.61 996.00 995.35 994.68 994.01 993.39 992.84 992.38 992.04 991.82 991.72 991.74 991.86 992.05 992.31 992.62 992.95 993.30 993.65 994.02 994.39 994.78 995.20 995.63 996.10 996.60 997.14
1000.99 1000.65 1000.33 1000.05 999.80 999.58 999.36 999.12 998.84 998.49 998.05 997.53 996.91 996.23 995.49 994.74 994.02 993.36 992.81 992.37 992.08 991.94 991.94 992.07 992.29 992.59 992.94 993.31 993.69 994.07 994.43 994.79 995.14 995.51 995.90 996.32 996.78 997.29
1001.44 1001.11 1000.82 1000.58 1000.38 1000.21 1000.06 999.89 999.67 999.38 998.99 998.48 997.86 997.15 996.36 995.54 994.73 993.97 993.32 992.80 992.44 992.24 992.21 992.32 992.55 992.87 993.25 993.65 994.05 994.44 994.80 995.14 995.47 995.81 996.16 996.54 996.97 997.46
1001.91 1001.60 1001.33 1001.12 1000.96 1000.84 1000.74 1000.63 1000.46 1000.21 999.85 999.37 998.75 998.01 997.18 996.31 995.43 994.60 993.86 993.26 992.84 992.59 992.52 992.61 992.83 993.15 993.53 993.94 994.36 994.75 995.11 995.44 995.76 996.07 996.39 996.75 997.15 997.61
Thickness
5626 5623 5621 5619 5617 5614 5611 5608 5605 5603 5606 5610 5613 5617 5618 5618 5619 5619 5621 5622 5622 5623 5624 5625 5626 5628 5629 5630 5631 5633 5633 5635 5636 5638 5640 5642 5644 5646
5623 5620 5617 5615 5613 5611 5609 5606 5604 5601 5601 5605 5608 5611 5612 5613 5614 5615 5615 5616 5617 5617 5618 5619 5621 5622 5623 5624 5625 5626 5627 5628 5629 5631 5633 5636 5638 5641
5620 5617 5614 5612 5609 5608 5606 5604 5601 5599 5598 5602 5604 5606 5607 5607 5609 5609 5610 5610 5611 5612 5613 5614 5615 5616 5617 5618 5619 5620 5622 5622 5623 5624 5627 5629 5632 5635
5617 5614 5612 5610 5607 5605 5603 5601 5599 5598 5596 5596 5599 5600 5602 5603 5603 5603 5604 5605 5606 5608 5609 5610 5611 5611 5612 5613 5614 5614 5615 5616 5617 5619 5621 5624 5627 5629
5615 5612 5609 5606 5604 5602 5600 5598 5597 5597 5594 5593 5594 5596 5597 5598 5598 5598 5599 5600 5602 5604 5605 5606 5606 5606 5607 5607 5608 5608 5609 5610 5611 5613 5615 5618 5620 5623
5614 5611 5608 5605 5603 5600 5598 5596 5594 5592 5591 5590 5589 5590 5591 5592 5591 5591 5592 5594 5596 5599 5600 5601 5602 5602 5602 5603 5603 5603 5604 5605 5606 5608 5610 5613 5615 5617
5612 5609 5607 5605 5603 5599 5597 5594 5592 5589 5587 5586 5585 5585 5586 5586 5586 5587 5587 5588 5590 5593 5593 5595 5596 5596 5597 5598 5598 5598 5599 5600 5601 5602 5604 5607 5609 5612
5609 5607 5606 5604 5602 5599 5597 5595 5592 5588 5585 5584 5582 5581 5582 5582 5582 5583 5581 5581 5583 5587 5587 5589 5591 5591 5593 5594 5594 5595 5595 5595 5596 5598 5599 5601 5603 5605
5606 5604 5603 5603 5599 5596 5594 5593 5591 5589 5587 5583 5581 5580 5580 5580 5579 5578 5578 5577 5579 5582 5582 5583 5585 5586 5589 5590 5591 5591 5591 5591 5592 5593 5595 5596 5597 5599
5604 5602 5600 5598 5597 5593 5591 5589 5588 5586 5585 5583 5580 5580 5579 5578 5576 5575 5575 5574 5576 5577 5577 5577 5580 5581 5584 5585 5586 5587 5587 5587 5588 5589 5590 5591 5592 5593
5602 5600 5598 5596 5594 5591 5588 5586 5585 5584 5584 5581 5580 5578 5578 5576 5574 5571 5570 5569 5570 5572 5573 5572 5574 5575 5577 5579 5581 5582 5583 5583 5584 5584 5585 5586 5587 5588
5598 5597 5596 5594 5591 5588 5585 5582 5580 5580 5579 5578 5577 5576 5575 5573 5572 5569 5568 5566 5565 5566 5569 5568 5569 5568 5570 5574 5576 5577 5577 5578 5579 5579 5580 5581 5581 5580
5595 5594 5593 5591 5589 5586 5583 5580 5579 5578 5575 5573 5571 5571 5570 5569 5568 5567 5566 5564 5562 5563 5565 5564 5564 5563 5563 5566 5569 5571 5572 5572 5573 5574 5575 5576 5576 5576
5592 5591 5590 5589 5587 5584 5583 5581 5579 5575 5572 5569 5568 5567 5566 5566 5565 5565 5564 5563 5562 5562 5562 5561 5559 5558 5558 5559 5561 5564 5565 5567 5567 5569 5570 5571 5572 5572
5590 5589 5587 5586 5584 5582 5581 5579 5576 5572 5568 5565 5564 5563 5563 5563 5562 5562 5561 5560 5559 5559 5559 5558 5556 5555 5554 5555 5556 5557 5559 5561 5563 5563 5564 5565 5567 5567
5587 5586 5584 5582 5580 5579 5577 5575 5572 5568 5565 5562 5560 5559 5559 5559 5558 5557 5555 5554 5553 5553 5554 5554 5553 5552 5551 5552 5552 5553 5554 5555 5557 5558 5559 5560 5562 5563
5583 5580 5579 5576 5574 5573 5571 5569 5566 5563 5560 5558 5556 5555 5555 5554 5553 5552 5550 5548 5546 5546 5547 5549 5549 5549 5549 5548 5548 5550 5551 5551 5553 5553 5553 5555 5557 5559
5578 5574 5572 5571 5569 5566 5564 5562 5560 5558 5555 5553 5551 5550 5549 5548 5547 5547 5545 5543 5542 5541 5541 5542 5542 5543 5543 5544 5546 5545 5546 5547 5548 5549 5549 5549 5552 5556
5573 5571 5568 5566 5564 5562 5560 5557 5555 5553 5550 5548 5546 5545 5544 5543 5542 5541 5540 5538 5538 5537 5537 5537 5536 5535 5535 5536 5541 5542 5541 5542 5542 5542 5543 5544 5547 5551
5570 5567 5565 5563 5560 5558 5556 5553 5550 5547 5544 5542 5540 5539 5538 5537 5536 5535 5534 5533 5532 5532 5532 5532 5531 5531 5530 5531 5533 5536 5537 5537 5536 5537 5538 5540 5541 5544
5568 5565 5562 5560 5557 5554 5551 5548 5545 5542 5539 5536 5535 5533 5532 5531 5530 5529 5529 5528 5527 5527 5526 5526 5527 5528 5527 5526 5526 5528 5530 5532 5532 5532 5532 5532 5533 5535
5565 5562 5559 5556 5553 5549 5546 5543 5540 5536 5533 5530 5528 5527 5526 5524 5524 5523 5523 5522 5521 5520 5520 5520 5521 5521 5520 5519 5519 5520 5522 5524 5526 5527 5527 5528 5527 5528
5562 5559 5555 5552 5548 5544 5540 5537 5534 5530 5527 5524 5522 5521 5520 5519 5518 5518 5517 5516 5516 5515 5514 5513 5513 5513 5513 5513 5513 5513 5515 5516 5517 5517 5519 5521 5523 5524